Wetterdaten: Dienstag, 28.09.2010
Datum Zeit Temp. A. Feuchte A. Luftdruck Regen Wind Richtung Richtung Sonnenschein UV Solar Windben
28.09.2010 00:00 9,7 C 94 % 1010,7 hPa 0,0 mm 2,0 km/h (1 Bft) W-SW 254 0 min 0 UV-I 0 W/m 8,0 km/h (2 Bft)
28.09.2010 00:10 9,7 C 94 % 1010,8 hPa 0,0 mm 0,9 km/h (0 Bft) W 272 0 min 0 UV-I 0 W/m 6,4 km/h (2 Bft)
28.09.2010 00:20 9,8 C 94 % 1010,9 hPa 0,3 mm 0,4 km/h (0 Bft) W 271 0 min 0 UV-I 0 W/m 4,8 km/h (1 Bft)
28.09.2010 00:30 9,8 C 94 % 1010,9 hPa 0,0 mm 0,4 km/h (0 Bft) W 261 0 min 0 UV-I 0 W/m 6,4 km/h (2 Bft)
28.09.2010 00:40 9,8 C 94 % 1010,9 hPa 0,3 mm 0,4 km/h (0 Bft) W 259 0 min 0 UV-I 0 W/m 3,2 km/h (1 Bft)
28.09.2010 00:50 9,8 C 94 % 1010,9 hPa 0,0 mm 0,5 km/h (0 Bft) W-SW 248 0 min 0 UV-I 0 W/m 4,8 km/h (1 Bft)
28.09.2010 01:00 9,8 C 94 % 1010,9 hPa 0,3 mm 0,4 km/h (0 Bft) W-SW 248 0 min 0 UV-I 0 W/m 4,8 km/h (1 Bft)
28.09.2010 01:10 9,8 C 94 % 1011,0 hPa 0,0 mm 0,2 km/h (0 Bft) W-SW 249 0 min 0 UV-I 0 W/m 4,8 km/h (1 Bft)
28.09.2010 01:20 9,8 C 94 % 1011,0 hPa 0,0 mm 0,1 km/h (0 Bft) W-SW 248 0 min 0 UV-I 0 W/m 1,6 km/h (1 Bft)
28.09.2010 01:30 9,8 C 94 % 1010,9 hPa 0,0 mm 0,4 km/h (0 Bft) W-SW 249 0 min 0 UV-I 0 W/m 4,8 km/h (1 Bft)
28.09.2010 01:40 9,9 C 94 % 1011,0 hPa 0,0 mm 0,5 km/h (0 Bft) W-SW 249 0 min 0 UV-I 0 W/m 4,8 km/h (1 Bft)
28.09.2010 01:50 9,9 C 94 % 1011,0 hPa 0,3 mm 0,2 km/h (0 Bft) W-SW 249 0 min 0 UV-I 0 W/m 3,2 km/h (1 Bft)
28.09.2010 02:00 9,9 C 94 % 1010,9 hPa 0,0 mm 0,0 km/h (0 Bft) W-SW 247 0 min 0 UV-I 0 W/m 4,8 km/h (1 Bft)
28.09.2010 02:10 9,9 C 94 % 1010,8 hPa 0,0 mm 0,0 km/h (0 Bft) W-SW 247 0 min 0 UV-I 0 W/m 3,2 km/h (1 Bft)
28.09.2010 02:20 9,9 C 94 % 1010,9 hPa 0,0 mm 0,0 km/h (0 Bft) W-SW 247 0 min 0 UV-I 0 W/m 3,2 km/h (1 Bft)
28.09.2010 02:30 9,9 C 94 % 1010,9 hPa 0,0 mm 0,0 km/h (0 Bft) W-SW 247 0 min 0 UV-I 0 W/m 3,2 km/h (1 Bft)
28.09.2010 02:40 9,9 C 94 % 1010,9 hPa 0,0 mm 0,0 km/h (0 Bft) W-SW 247 0 min 0 UV-I 0 W/m 4,8 km/h (1 Bft)
28.09.2010 02:50 10,0 C 94 % 1010,9 hPa 0,3 mm 0,0 km/h (0 Bft) W-SW 247 0 min 0 UV-I 0 W/m 3,2 km/h (1 Bft)
28.09.2010 03:00 10,0 C 94 % 1010,9 hPa 0,0 mm 0,0 km/h (0 Bft) W-SW 247 0 min 0 UV-I 0 W/m 4,8 km/h (1 Bft)
28.09.2010 03:10 10,0 C 94 % 1010,9 hPa 0,0 mm 0,0 km/h (0 Bft) W-SW 247 0 min 0 UV-I 0 W/m 3,2 km/h (1 Bft)
28.09.2010 03:20 10,0 C 94 % 1010,9 hPa 0,0 mm 0,0 km/h (0 Bft) W-SW 247 0 min 0 UV-I 0 W/m 4,8 km/h (1 Bft)
28.09.2010 03:30 10,1 C 94 % 1010,9 hPa 0,0 mm 0,0 km/h (0 Bft) W 270 0 min 0 UV-I 0 W/m 3,2 km/h (1 Bft)
28.09.2010 03:40 10,1 C 94 % 1011,0 hPa 0,0 mm 0,0 km/h (0 Bft) W 270 0 min 0 UV-I 0 W/m 3,2 km/h (1 Bft)
28.09.2010 03:50 10,1 C 94 % 1011,0 hPa 0,0 mm 0,0 km/h (0 Bft) W 270 0 min 0 UV-I 0 W/m 3,2 km/h (1 Bft)
28.09.2010 04:00 10,1 C 94 % 1011,1 hPa 0,0 mm 0,0 km/h (0 Bft) W 270 0 min 0 UV-I 0 W/m 1,6 km/h (1 Bft)
28.09.2010 04:10 10,1 C 94 % 1011,1 hPa 0,0 mm 0,0 km/h (0 Bft) W 270 0 min 0 UV-I 0 W/m 3,2 km/h (1 Bft)
28.09.2010 04:20 10,1 C 94 % 1011,1 hPa 0,3 mm 0,0 km/h (0 Bft) W 270 0 min 0 UV-I 0 W/m 1,6 km/h (1 Bft)
28.09.2010 04:30 10,1 C 94 % 1011,1 hPa 0,0 mm 0,0 km/h (0 Bft) W 270 0 min 0 UV-I 0 W/m 1,6 km/h (1 Bft)
28.09.2010 04:40 10,1 C 94 % 1011,1 hPa 0,0 mm 0,0 km/h (0 Bft) W 270 0 min 0 UV-I 0 W/m 3,2 km/h (1 Bft)
28.09.2010 04:50 10,1 C 94 % 1011,3 hPa 0,0 mm 0,0 km/h (0 Bft) W 270 0 min 0 UV-I 0 W/m 4,8 km/h (1 Bft)
28.09.2010 05:00 10,2 C 94 % 1011,4 hPa 0,0 mm 0,0 km/h (0 Bft) W 270 0 min 0 UV-I 0 W/m 3,2 km/h (1 Bft)
28.09.2010 05:10 10,2 C 94 % 1011,5 hPa 0,0 mm 0,0 km/h (0 Bft) W 270 0 min 0 UV-I 0 W/m 3,2 km/h (1 Bft)
28.09.2010 05:20 10,2 C 94 % 1011,7 hPa 0,0 mm 0,0 km/h (0 Bft) W 270 0 min 0 UV-I 0 W/m 1,6 km/h (1 Bft)
28.09.2010 05:30 10,2 C 94 % 1011,7 hPa 0,0 mm 0,0 km/h (0 Bft) W 270 0 min 0 UV-I 0 W/m 1,6 km/h (1 Bft)
28.09.2010 05:40 10,2 C 94 % 1011,7 hPa 0,3 mm 0,0 km/h (0 Bft) W 270 0 min 0 UV-I 0 W/m 3,2 km/h (1 Bft)
28.09.2010 05:50 10,2 C 94 % 1011,7 hPa 0,0 mm 0,0 km/h (0 Bft) W 270 0 min 0 UV-I 0 W/m 3,2 km/h (1 Bft)
28.09.2010 06:00 10,2 C 94 % 1011,7 hPa 0,0 mm 0,0 km/h (0 Bft) W 270 0 min 0 UV-I 0 W/m 3,2 km/h (1 Bft)
28.09.2010 06:10 10,3 C 94 % 1011,6 hPa 0,0 mm 0,0 km/h (0 Bft) W 270 0 min 0 UV-I 0 W/m 3,2 km/h (1 Bft)
28.09.2010 06:20 10,3 C 94 % 1011,6 hPa 0,0 mm 0,0 km/h (0 Bft) W 270 0 min 0 UV-I 0 W/m 4,8 km/h (1 Bft)
28.09.2010 06:30 10,3 C 94 % 1011,7 hPa 0,0 mm 0,0 km/h (0 Bft) N 0 0 min 0 UV-I 0 W/m 0,0 km/h (0 Bft)
28.09.2010 06:40 10,3 C 94 % 1011,8 hPa 0,0 mm 0,0 km/h (0 Bft) N 0 0 min 0 UV-I 0 W/m 0,0 km/h (0 Bft)
28.09.2010 06:50 10,3 C 94 % 1011,9 hPa 0,0 mm 0,0 km/h (0 Bft) N 0 0 min 0 UV-I 0 W/m 0,0 km/h (0 Bft)
28.09.2010 07:00 10,3 C 94 % 1011,9 hPa 0,0 mm 0,0 km/h (0 Bft) N 0 0 min 0 UV-I 0 W/m 0,0 km/h (0 Bft)
28.09.2010 07:10 10,3 C 94 % 1012,0 hPa 0,0 mm 0,0 km/h (0 Bft) N 0 0 min 0 UV-I 0 W/m 0,0 km/h (0 Bft)
28.09.2010 07:20 10,4 C 94 % 1012,0 hPa 0,0 mm 0,0 km/h (0 Bft) N 0 0 min 0 UV-I 0 W/m 0,0 km/h (0 Bft)
28.09.2010 07:30 10,4 C 94 % 1012,1 hPa 0,0 mm 0,0 km/h (0 Bft) N 0 0 min 0 UV-I 0 W/m 0,0 km/h (0 Bft)
28.09.2010 07:40 10,4 C 94 % 1012,3 hPa 0,0 mm 0,0 km/h (0 Bft) W 270 0 min 0 UV-I 0 W/m 1,6 km/h (1 Bft)
28.09.2010 07:50 10,5 C 94 % 1012,5 hPa 0,0 mm 0,0 km/h (0 Bft) N 0 0 min 0 UV-I 0 W/m 0,0 km/h (0 Bft)
28.09.2010 08:00 10,5 C 94 % 1012,5 hPa 0,0 mm 0,0 km/h (0 Bft) N 0 0 min 0 UV-I 5 W/m 0,0 km/h (0 Bft)
28.09.2010 08:10 10,6 C 94 % 1012,6 hPa 0,3 mm 0,0 km/h (0 Bft) W 270 0 min 0 UV-I 5 W/m 1,6 km/h (1 Bft)
28.09.2010 08:20 10,6 C 94 % 1012,6 hPa 0,0 mm 0,0 km/h (0 Bft) W 270 0 min 0 UV-I 11 W/m 1,6 km/h (1 Bft)
28.09.2010 08:30 10,6 C 94 % 1012,8 hPa 0,0 mm 0,0 km/h (0 Bft) W 270 0 min 0 UV-I 14 W/m 1,6 km/h (1 Bft)
28.09.2010 08:40 10,7 C 95 % 1012,8 hPa 0,0 mm 0,0 km/h (0 Bft) N 0 0 min 0 UV-I 19 W/m 0,0 km/h (0 Bft)
28.09.2010 08:50 10,7 C 95 % 1012,9 hPa 0,0 mm 0,0 km/h (0 Bft) N 0 0 min 0 UV-I 26 W/m 0,0 km/h (0 Bft)
28.09.2010 09:00 10,8 C 95 % 1012,9 hPa 0,0 mm 0,0 km/h (0 Bft) NO 45 0 min 0 UV-I 32 W/m 4,8 km/h (1 Bft)
28.09.2010 09:10 10,8 C 94 % 1013,0 hPa 0,0 mm 0,0 km/h (0 Bft) NO 45 0 min 0 UV-I 33 W/m 4,8 km/h (1 Bft)
28.09.2010 09:20 10,9 C 94 % 1013,1 hPa 0,0 mm 0,0 km/h (0 Bft) NO 45 0 min 0 UV-I 37 W/m 1,6 km/h (1 Bft)
28.09.2010 09:30 11,0 C 94 % 1013,2 hPa 0,0 mm 0,0 km/h (0 Bft) N 0 0 min 0 UV-I 53 W/m 0,0 km/h (0 Bft)
28.09.2010 09:40 11,1 C 95 % 1013,3 hPa 0,0 mm 0,0 km/h (0 Bft) NO 45 0 min 0 UV-I 60 W/m 1,6 km/h (1 Bft)
28.09.2010 09:50 11,2 C 95 % 1013,3 hPa 0,0 mm 0,0 km/h (0 Bft) NO 45 0 min 1 UV-I 81 W/m 1,6 km/h (1 Bft)
28.09.2010 10:00 11,3 C 95 % 1013,5 hPa 0,0 mm 0,0 km/h (0 Bft) NO 45 0 min 1 UV-I 86 W/m 1,6 km/h (1 Bft)
28.09.2010 10:10 11,4 C 95 % 1013,5 hPa 0,0 mm 0,0 km/h (0 Bft) NO 45 0 min 1 UV-I 72 W/m 1,6 km/h (1 Bft)
28.09.2010 10:20 11,5 C 95 % 1013,6 hPa 0,0 mm 0,0 km/h (0 Bft) NO 45 0 min 1 UV-I 77 W/m 3,2 km/h (1 Bft)
28.09.2010 10:30 11,6 C 95 % 1013,6 hPa 0,0 mm 0,0 km/h (0 Bft) NO 45 0 min 1 UV-I 95 W/m 1,6 km/h (1 Bft)
28.09.2010 10:40 11,7 C 95 % 1013,6 hPa 0,0 mm 0,0 km/h (0 Bft) NO 45 0 min 1 UV-I 88 W/m 3,2 km/h (1 Bft)
28.09.2010 10:50 11,8 C 95 % 1013,7 hPa 0,0 mm 0,0 km/h (0 Bft) N-NO 22 0 min 1 UV-I 77 W/m 4,8 km/h (1 Bft)
28.09.2010 11:00 11,9 C 95 % 1013,9 hPa 0,0 mm 0,0 km/h (0 Bft) N-NO 22 0 min 1 UV-I 90 W/m 3,2 km/h (1 Bft)
28.09.2010 11:10 11,9 C 95 % 1013,8 hPa 0,0 mm 0,0 km/h (0 Bft) N-NO 22 0 min 1 UV-I 84 W/m 1,6 km/h (1 Bft)
28.09.2010 11:20 12,1 C 95 % 1013,9 hPa 0,0 mm 0,0 km/h (0 Bft) N-NW 337 0 min 1 UV-I 125 W/m 4,8 km/h (1 Bft)
28.09.2010 11:30 12,1 C 95 % 1014,1 hPa 0,0 mm 1,6 km/h (1 Bft) W-NW 292 0 min 1 UV-I 148 W/m 8,0 km/h (2 Bft)
28.09.2010 11:40 12,2 C 95 % 1014,1 hPa 0,0 mm 0,0 km/h (0 Bft) W-NW 292 0 min 1 UV-I 146 W/m 4,8 km/h (1 Bft)
28.09.2010 11:50 12,2 C 95 % 1014,2 hPa 0,0 mm 0,0 km/h (0 Bft) W-NW 292 0 min 1 UV-I 130 W/m 6,4 km/h (2 Bft)
28.09.2010 12:00 12,3 C 95 % 1014,2 hPa 0,0 mm 1,6 km/h (1 Bft) N-NW 337 0 min 1 UV-I 111 W/m 17,7 km/h (3 Bft)
28.09.2010 12:10 12,2 C 94 % 1014,3 hPa 0,3 mm 3,2 km/h (1 Bft) N-NO 22 0 min 1 UV-I 58 W/m 9,7 km/h (2 Bft)
28.09.2010 12:20 11,9 C 94 % 1014,4 hPa 0,0 mm 3,2 km/h (1 Bft) N-NO 22 0 min 1 UV-I 65 W/m 17,7 km/h (3 Bft)
28.09.2010 12:30 11,8 C 94 % 1014,4 hPa 0,0 mm 1,6 km/h (1 Bft) N 360 0 min 1 UV-I 58 W/m 11,3 km/h (2 Bft)
28.09.2010 12:40 11,7 C 94 % 1014,5 hPa 0,0 mm 1,6 km/h (1 Bft) NW 315 0 min 1 UV-I 69 W/m 9,7 km/h (2 Bft)
28.09.2010 12:50 11,7 C 94 % 1014,6 hPa 0,0 mm 1,6 km/h (1 Bft) N 360 0 min 1 UV-I 100 W/m 9,7 km/h (2 Bft)
28.09.2010 13:00 11,7 C 95 % 1014,6 hPa 0,0 mm 0,0 km/h (0 Bft) N-NW 337 0 min 1 UV-I 130 W/m 6,4 km/h (2 Bft)
28.09.2010 13:10 11,8 C 95 % 1014,7 hPa 0,0 mm 0,0 km/h (0 Bft) N-NW 337 0 min 1 UV-I 151 W/m 6,4 km/h (2 Bft)
28.09.2010 13:20 11,9 C 95 % 1014,8 hPa 0,0 mm 1,6 km/h (1 Bft) N-NW 337 0 min 1 UV-I 139 W/m 6,4 km/h (2 Bft)
28.09.2010 13:30 12,0 C 94 % 1014,9 hPa 0,0 mm 1,6 km/h (1 Bft) W-NW 292 0 min 1 UV-I 91 W/m 6,4 km/h (2 Bft)
28.09.2010 13:40 12,0 C 94 % 1014,9 hPa 0,0 mm 1,6 km/h (1 Bft) NW 315 0 min 1 UV-I 111 W/m 9,7 km/h (2 Bft)
28.09.2010 13:50 12,1 C 94 % 1015,0 hPa 0,0 mm 0,0 km/h (0 Bft) W-NW 292 0 min 1 UV-I 114 W/m 4,8 km/h (1 Bft)
28.09.2010 14:00 12,1 C 95 % 1015,0 hPa 0,0 mm 1,6 km/h (1 Bft) W-NW 292 0 min 1 UV-I 120 W/m 6,4 km/h (2 Bft)
28.09.2010 14:10 12,1 C 95 % 1015,2 hPa 0,0 mm 1,6 km/h (1 Bft) W-NW 292 0 min 1 UV-I 105 W/m 6,4 km/h (2 Bft)
28.09.2010 14:20 12,1 C 94 % 1015,4 hPa 0,0 mm 1,6 km/h (1 Bft) N-NO 22 0 min 1 UV-I 65 W/m 9,7 km/h (2 Bft)
28.09.2010 14:30 11,9 C 94 % 1015,4 hPa 0,0 mm 1,6 km/h (1 Bft) N 360 0 min 1 UV-I 95 W/m 6,4 km/h (2 Bft)
28.09.2010 14:40 11,9 C 94 % 1015,5 hPa 0,0 mm 1,6 km/h (1 Bft) N 360 0 min 1 UV-I 97 W/m 6,4 km/h (2 Bft)
28.09.2010 14:50 11,8 C 94 % 1015,4 hPa 0,0 mm 0,0 km/h (0 Bft) N-NO 22 0 min 1 UV-I 72 W/m 4,8 km/h (1 Bft)
28.09.2010 15:00 11,8 C 94 % 1015,4 hPa 0,0 mm 1,6 km/h (1 Bft) N 360 0 min 0 UV-I 53 W/m 8,0 km/h (2 Bft)
28.09.2010 15:10 11,8 C 94 % 1015,3 hPa 0,0 mm 1,6 km/h (1 Bft) N 360 0 min 1 UV-I 98 W/m 6,4 km/h (2 Bft)
28.09.2010 15:20 11,8 C 94 % 1015,4 hPa 0,0 mm 0,0 km/h (0 Bft) N 360 0 min 1 UV-I 102 W/m 4,8 km/h (1 Bft)
28.09.2010 15:30 11,8 C 94 % 1015,4 hPa 0,0 mm 0,0 km/h (0 Bft) N 360 0 min 1 UV-I 118 W/m 3,2 km/h (1 Bft)
28.09.2010 15:40 11,8 C 94 % 1015,4 hPa 0,0 mm 0,0 km/h (0 Bft) N 360 0 min 1 UV-I 114 W/m 4,8 km/h (1 Bft)
28.09.2010 15:50 11,9 C 94 % 1015,6 hPa 0,0 mm 0,0 km/h (0 Bft) N 360 0 min 1 UV-I 84 W/m 4,8 km/h (1 Bft)
28.09.2010 16:00 11,9 C 94 % 1015,6 hPa 0,0 mm 0,0 km/h (0 Bft) N 360 0 min 1 UV-I 81 W/m 3,2 km/h (1 Bft)
28.09.2010 16:10 11,9 C 94 % 1015,6 hPa 0,0 mm 0,0 km/h (0 Bft) N 360 0 min 1 UV-I 79 W/m 3,2 km/h (1 Bft)
28.09.2010 16:20 11,9 C 94 % 1015,6 hPa 0,0 mm 1,6 km/h (1 Bft) NW 315 0 min 1 UV-I 65 W/m 9,7 km/h (2 Bft)
28.09.2010 16:30 11,8 C 94 % 1015,6 hPa 0,0 mm 0,0 km/h (0 Bft) N-NW 337 0 min 1 UV-I 62 W/m 4,8 km/h (1 Bft)
28.09.2010 16:40 11,8 C 94 % 1015,8 hPa 0,0 mm 1,6 km/h (1 Bft) N 360 0 min 0 UV-I 25 W/m 8,0 km/h (2 Bft)
28.09.2010 16:50 11,7 C 94 % 1016,1 hPa 0,0 mm 3,2 km/h (1 Bft) N 360 0 min 0 UV-I 33 W/m 9,7 km/h (2 Bft)
28.09.2010 17:00 11,5 C 93 % 1016,1 hPa 0,0 mm 1,6 km/h (1 Bft) N-NO 22 0 min 0 UV-I 26 W/m 6,4 km/h (2 Bft)
28.09.2010 17:10 11,4 C 94 % 1016,0 hPa 0,0 mm 1,6 km/h (1 Bft) N 360 0 min 0 UV-I 25 W/m 8,0 km/h (2 Bft)
28.09.2010 17:20 11,3 C 94 % 1015,9 hPa 0,0 mm 1,6 km/h (1 Bft) N-NO 22 0 min 0 UV-I 33 W/m 6,4 km/h (2 Bft)
28.09.2010 17:30 11,3 C 94 % 1016,0 hPa 0,0 mm 1,6 km/h (1 Bft) N-NO 22 0 min 0 UV-I 33 W/m 6,4 km/h (2 Bft)
28.09.2010 17:40 11,3 C 94 % 1016,1 hPa 0,0 mm 0,0 km/h (0 Bft) N-NO 22 0 min 0 UV-I 35 W/m 4,8 km/h (1 Bft)
28.09.2010 17:50 11,3 C 94 % 1016,2 hPa 0,0 mm 1,6 km/h (1 Bft) N-NO 22 0 min 0 UV-I 39 W/m 6,4 km/h (2 Bft)
28.09.2010 18:00 11,2 C 94 % 1016,1 hPa 0,0 mm 1,6 km/h (1 Bft) N-NO 22 0 min 0 UV-I 44 W/m 8,0 km/h (2 Bft)
28.09.2010 18:10 11,2 C 93 % 1016,2 hPa 0,0 mm 0,0 km/h (0 Bft) N-NO 22 0 min 0 UV-I 47 W/m 4,8 km/h (1 Bft)
28.09.2010 18:20 11,2 C 93 % 1016,4 hPa 0,0 mm 0,0 km/h (0 Bft) N-NO 22 0 min 0 UV-I 49 W/m 1,6 km/h (1 Bft)
28.09.2010 18:30 11,2 C 93 % 1016,6 hPa 0,0 mm 0,0 km/h (0 Bft) N 0 0 min 0 UV-I 35 W/m 0,0 km/h (0 Bft)
28.09.2010 18:40 11,2 C 93 % 1016,6 hPa 0,0 mm 0,0 km/h (0 Bft) N-NO 22 0 min 0 UV-I 28 W/m 3,2 km/h (1 Bft)
28.09.2010 18:50 11,1 C 93 % 1016,6 hPa 0,0 mm 0,0 km/h (0 Bft) N-NO 22 0 min 0 UV-I 21 W/m 1,6 km/h (1 Bft)
28.09.2010 19:00 11,1 C 93 % 1016,8 hPa 0,0 mm 0,0 km/h (0 Bft) N-NO 22 0 min 0 UV-I 11 W/m 3,2 km/h (1 Bft)
28.09.2010 19:10 10,9 C 93 % 1016,8 hPa 0,0 mm 0,0 km/h (0 Bft) N-NO 22 0 min 0 UV-I 0 W/m 1,6 km/h (1 Bft)
28.09.2010 19:20 10,8 C 93 % 1017,0 hPa 0,0 mm 0,0 km/h (0 Bft) N-NO 22 0 min 0 UV-I 0 W/m 1,6 km/h (1 Bft)
28.09.2010 19:30 10,7 C 93 % 1017,1 hPa 0,0 mm 0,0 km/h (0 Bft) N-NO 22 0 min 0 UV-I 0 W/m 1,6 km/h (1 Bft)
28.09.2010 19:40 10,6 C 93 % 1017,2 hPa 0,0 mm 0,0 km/h (0 Bft) N 0 0 min 0 UV-I 0 W/m 0,0 km/h (0 Bft)
28.09.2010 19:50 10,5 C 93 % 1017,3 hPa 0,0 mm 0,0 km/h (0 Bft) N 0 0 min 0 UV-I 0 W/m 0,0 km/h (0 Bft)
28.09.2010 20:00 10,4 C 93 % 1017,4 hPa 0,0 mm 0,0 km/h (0 Bft) N-NO 22 0 min 0 UV-I 0 W/m 1,6 km/h (1 Bft)
28.09.2010 20:10 10,4 C 93 % 1017,4 hPa 0,0 mm 0,0 km/h (0 Bft) N-NO 22 0 min 0 UV-I 0 W/m 3,2 km/h (1 Bft)
28.09.2010 20:20 10,4 C 93 % 1017,4 hPa 0,0 mm 0,0 km/h (0 Bft) N 0 0 min 0 UV-I 0 W/m 0,0 km/h (0 Bft)
28.09.2010 20:30 10,4 C 93 % 1017,4 hPa 0,0 mm 0,0 km/h (0 Bft) N-NO 24 0 min 0 UV-I 0 W/m 0,0 km/h (0 Bft)
28.09.2010 20:40 10,4 C 93 % 1017,4 hPa 0,0 mm 0,0 km/h (0 Bft) N-NO 22 0 min 0 UV-I 0 W/m 3,2 km/h (1 Bft)
28.09.2010 20:50 10,4 C 93 % 1017,4 hPa 0,0 mm 0,0 km/h (0 Bft) N 0 0 min 0 UV-I 0 W/m 0,0 km/h (0 Bft)
28.09.2010 21:00 10,4 C 93 % 1017,5 hPa 0,0 mm 0,0 km/h (0 Bft) N-NO 22 0 min 0 UV-I 0 W/m 1,6 km/h (1 Bft)
28.09.2010 21:10 10,4 C 93 % 1017,5 hPa 0,0 mm 0,0 km/h (0 Bft) N-NO 22 0 min 0 UV-I 0 W/m 1,6 km/h (1 Bft)
28.09.2010 21:20 10,3 C 93 % 1017,6 hPa 0,0 mm 0,0 km/h (0 Bft) N-NO 22 0 min 0 UV-I 0 W/m 1,6 km/h (1 Bft)
28.09.2010 21:30 10,3 C 93 % 1017,7 hPa 0,0 mm 0,0 km/h (0 Bft) N-NO 22 0 min 0 UV-I 0 W/m 1,6 km/h (1 Bft)
28.09.2010 21:40 10,2 C 93 % 1017,8 hPa 0,0 mm 0,0 km/h (0 Bft) N-NO 22 0 min 0 UV-I 0 W/m 1,6 km/h (1 Bft)
28.09.2010 21:50 10,1 C 93 % 1017,8 hPa 0,0 mm 0,0 km/h (0 Bft) N 0 0 min 0 UV-I 0 W/m 0,0 km/h (0 Bft)
28.09.2010 22:00 10,1 C 93 % 1018,0 hPa 0,0 mm 0,0 km/h (0 Bft) N-NO 22 0 min 0 UV-I 0 W/m 1,6 km/h (1 Bft)
28.09.2010 22:10 10,1 C 93 % 1018,0 hPa 0,0 mm 0,0 km/h (0 Bft) N-NO 22 0 min 0 UV-I 0 W/m 1,6 km/h (1 Bft)
28.09.2010 22:20 10,0 C 93 % 1018,2 hPa 0,0 mm 0,0 km/h (0 Bft) N-NO 22 0 min 0 UV-I 0 W/m 1,6 km/h (1 Bft)
28.09.2010 22:30 10,0 C 93 % 1018,3 hPa 0,0 mm 0,0 km/h (0 Bft) N-NO 24 0 min 0 UV-I 0 W/m 0,0 km/h (0 Bft)
28.09.2010 22:40 10,1 C 93 % 1018,3 hPa 0,0 mm 0,0 km/h (0 Bft) N-NO 24 0 min 0 UV-I 0 W/m 1,6 km/h (1 Bft)
28.09.2010 22:50 10,1 C 93 % 1018,3 hPa 0,0 mm 0,0 km/h (0 Bft) N-NO 24 0 min 0 UV-I 0 W/m 0,0 km/h (0 Bft)
28.09.2010 23:00 10,0 C 93 % 1018,3 hPa 0,0 mm 0,0 km/h (0 Bft) N-NO 24 0 min 0 UV-I 0 W/m 0,0 km/h (0 Bft)
28.09.2010 23:10 10,0 C 93 % 1018,3 hPa 0,0 mm 0,0 km/h (0 Bft) N-NO 24 0 min 0 UV-I 0 W/m 0,0 km/h (0 Bft)
28.09.2010 23:20 9,9 C 93 % 1018,4 hPa 0,0 mm 0,0 km/h (0 Bft) N-NO 24 0 min 0 UV-I 0 W/m 1,6 km/h (1 Bft)
28.09.2010 23:30 9,9 C 93 % 1018,4 hPa 0,0 mm 0,0 km/h (0 Bft) N 0 0 min 0 UV-I 0 W/m 0,0 km/h (0 Bft)
28.09.2010 23:40 9,9 C 93 % 1018,4 hPa 0,0 mm 0,0 km/h (0 Bft) N 0 0 min 0 UV-I 0 W/m 0,0 km/h (0 Bft)
28.09.2010 23:50 9,8 C 93 % 1018,3 hPa 0,0 mm 0,0 km/h (0 Bft) N 0 0 min 0 UV-I 0 W/m 0,0 km/h (0 Bft)
_ Min-Zeit 00:00 17:00 00:00 - 02:00 - - - - - 06:30
Minimum _ 9,7 C 93 % 1010,7 hPa - 0,0 km/h (0 Bft) - - - - - 0,0 km/h (0 Bft)
_ Max-Zeit 12:00 08:40 23:20 00:20 12:10 - - 00:00 13:10 13:10 12:00
Maximum _ 12,3 C 95 % 1018,4 hPa 0,3 mm 3,2 km/h
N-NO (1 Bft)
- - 0 min 1 UV-I 151 W/m 17,7 km/h
W-NW (3 Bft)
Durchschnitt _ 10,8 C 94 % 1014,2 hPa #2,3 mm 0,4 km/h (0 Bft) N - #0 min. 1 UV-I 70 W/m 3,7 km/h (1 Bft)